GW1647 Weather Reports


Display with metric or nautical units.
time (UTC)temp
F
wind
direction
speed
MPH
gust
MPH
rain 1hr
in
rain 24hr
in
rain mn
in
humidity
%
barometer
mb
20260504081605 58 0 1.0 6.0 0.00 0.00 0.00 50 1004.1
20260504044556 64 0 1.0 3.0 0.00 0.00 0.00 40 1006.9
20260504043101 64 0 0.0 2.0 0.00 0.00 0.00 41 1007.1
20260504041558 63 283 0.0 2.0 0.00 0.00 0.00 41 1007.2
20260504040132 64 0 0.0 0.0 0.00 0.00 0.00 41 1007.3
20260504034601 64 0 0.0 0.0 0.00 0.00 0.00 41 1007.7
20260504033059 64 0 0.0 0.0 0.00 0.00 0.00 41 1007.9
20260504031606 65 0 0.0 0.0 0.00 0.00 0.00 41 1007.9
20260504030055 66 0 0.0 0.0 0.00 0.00 0.00 41 1007.9
20260504024603 67 0 0.0 0.0 0.00 0.00 0.00 38 1008.0
20260504023058 67 0 0.0 1.0 0.00 0.00 0.00 39 1008.0
20260504021557 69 0 0.0 0.0 0.00 0.00 0.00 36 1008.2
20260504020109 69 0 0.0 0.0 0.00 0.00 0.00 35 1008.4
20260504014556 70 0 0.0 0.0 0.00 0.00 0.00 34 1008.5
20260504013053 70 0 0.0 1.0 0.00 0.00 0.00 33 1008.4
20260504011553 71 0 0.0 0.0 0.00 0.00 0.00 32 1008.5
20260504010056 71 0 0.0 0.0 0.00 0.00 0.00 32 1008.6
20260504004555 72 0 0.0 4.0 0.00 0.00 0.00 31 1008.7
20260504003054 73 300 0.0 3.0 0.00 0.00 0.00 31 1008.8
20260504001556 73 290 0.0 6.0 0.00 0.00 0.00 30 1008.8
20260504000101 73 280 0.0 3.0 0.00 0.00 0.00 30 1009.1
20260503234624 74 290 0.0 3.0 0.00 0.00 0.00 29 1009.0
20260503233058 74 286 1.0 6.0 0.00 0.00 0.00 31 1009.1
20260503231556 74 0 0.0 5.0 0.00 0.00 0.00 29 1009.3
20260503230100 74 300 1.0 12.0 0.00 0.00 0.00 29 1009.2
20260503224557 75 317 2.0 9.0 0.00 0.00 0.00 29 1009.2
20260503223056 75 306 1.0 7.0 0.00 0.00 0.00 32 1009.2
20260503221601 75 317 1.0 8.0 0.00 0.00 0.00 31 1009.4
20260503220055 75 323 1.0 8.0 0.00 0.00 0.00 30 1009.4
20260503214556 75 0 0.0 7.0 0.00 0.00 0.00 30 1009.5
20260503213057 75 311 1.0 8.0 0.00 0.00 0.00 29 1009.8
20260503211555 74 80 0.0 7.0 0.00 0.00 0.00 29 1009.9
20260503210057 75 0 1.0 11.0 0.00 0.00 0.00 31 1010.3
20260503204557 75 0 0.0 5.0 0.00 0.00 0.00 32 1010.3
20260503203058 74 0 2.0 11.0 0.00 0.00 0.00 33 1010.6
20260503201556 73 277 2.0 12.0 0.00 0.00 0.00 32 1010.8
20260503200101 74 0 2.0 10.0 0.00 0.00 0.00 31 1011.1
20260503194600 73 337 0.0 10.0 0.00 0.00 0.00 33 1011.2
20260503193056 72 339 1.0 10.0 0.00 0.00 0.00 36 1011.2
20260503191555 73 353 2.0 11.0 0.00 0.00 0.00 32 1011.3
20260503190055 72 345 1.0 11.0 0.00 0.00 0.00 32 1011.4
20260503184558 72 356 4.0 12.0 0.00 0.00 0.00 32 1011.6
20260503183057 73 355 1.0 12.0 0.00 0.00 0.00 32 1011.7
20260503181555 73 3 4.0 16.0 0.00 0.00 0.00 33 1011.8
20260503174559 71 313 3.0 14.0 0.00 0.00 0.00 33 1012.1
20260503173100 71 3 4.0 12.0 0.00 0.00 0.00 36 1012.1
20260503171559 70 351 3.0 14.0 0.00 0.00 0.00 33 1012.3
20260503110109 53 313 1.0 10.0 0.00 0.00 0.00 49 1011.0